Regional Weather Roundup
Issued by NWS

Home | Current Version | Previous Version | Graphics & Text | Print | Product List | Glossary Off
Versions: 1 2 3 4 5 6 7 8 9 10 11 12 13 14 15 16 17 18 19 20 21 22 23 24 25 26 27 28 29 30 31 32 33 34 35 36 37 38 39 40 41 42 43 44 45 46 47 48 49 50

000
ASUS43 KDTX 230310
RWRMI
MICHIGAN HOURLY REGIONAL WEATHER ROUNDUP
NATIONAL WEATHER SERVICE DETROIT/PONTIAC MI
1100 PM EDT TUE AUG 22 2017

NOTE: "FAIR" INDICATES FEW OR NO CLOUDS BELOW 12,000 FEET WITH NO
SIGNIFICANT WEATHER AND/OR OBSTRUCTION TO VISIBILITY.

MIZ047>049-052>055-059>063-066>070-074>076-081>083-230400-
SOUTHEAST LOWER MICHIGAN

CITY           SKY/WX    TMP DP  RH WIND       PRES   REMARKS
ADRIAN         CLEAR     62  53  72 NW7       29.94R
ALMA           CLEAR     60  52  76 W3        29.90S
ANN ARBOR      CLEAR     62  52  69 W5        29.91R
BAD AXE        CLEAR     59  51  75 W5        29.86S
CARO           CLEAR     58  51  77 W3        29.87S
DETROIT CITY   CLEAR     69  51  52 NW10      29.89R
DETROIT        PTCLDY    67  53  61 NW8       29.91R
FLINT          CLEAR     60  52  74 W7        29.90R
GROSSE ILE     CLEAR     68  53  58 NW6       29.88S
HILLSDALE      CLEAR     59  52  77 W5        29.94S
HOWELL         CLEAR     61  53  75 W6        29.91S

CITY           SKY/WX    TMP DP  RH WIND       PRES   REMARKS
JACKSON        CLEAR     61  52  72 W5        29.93R
LAMBERTVILLE   CLEAR     64  53  67 W3        29.92R
LANSING        CLEAR     61  51  70 W6        29.92S
LAPEER         FAIR      63  52  66 NW3       29.89R
MASON          CLEAR     64  52  66 CALM      29.93R
MONROE         CLEAR     65  54  67 NW6       29.90R
MT. CLEMENS    CLEAR     66  53  64 W6        29.86R
PONTIAC        CLEAR     63  53  70 W9        29.89R
PORT HOPE        N/A     66  51  58 W10G21    29.82S
PORT HURON     CLEAR     59  55  88 SW3       29.87R
TRI CITIES     CLEAR     62  55  77 W7        29.89R
MIDLAND        FAIR      57  55  90 CALM      29.87S
TROY           CLEAR     68  51  54 W6        29.91R
SAGINAW HB     CLEAR     61  52  72 SW5       29.88R
$$
MIZ043>046-050>051-056>058-064>065-071>073-077>080-230400-
SOUTHWEST LOWER MICHIGAN

CITY           SKY/WX    TMP DP  RH WIND       PRES   REMARKS
BATTLE CREEK   CLEAR     60  55  83 W5        29.95R
BENTON HARBOR  CLEAR     70  50  49 NW7       29.95S
BIG RAPIDS     CLEAR     59  51  75 W3        29.90S
COLDWATER      CLEAR     58  55  88 W5        29.95S
FREMONT        MOCLDY    59  56  91 SW5       29.91S
HOLLAND        CLEAR     67  52  58 NW3       29.94S
GRAND RAPIDS   CLEAR     63  53  70 SW7       29.92S
IONIA          FAIR      60  53  78 W7        29.91F
KALAMAZOO      CLEAR     62  54  74 W3        29.96R
LUDINGTON      CLEAR     66  50  55 NW9       29.90S
MARSHALL       CLEAR     59  55  87 W3        29.94S
MOUNT PLEASANT CLEAR     62  52  70 W5        29.88S
MUSKEGON       CLEAR     68  53  58 W9        29.92S
SOUTH HAVEN    CLEAR     70  51  49 NW7       29.95S
$$
MIZ016>042-230400-
NORTHERN LOWER MICHIGAN

CITY           SKY/WX    TMP DP  RH WIND       PRES   REMARKS
ALPENA         CLEAR     59  52  77 W3        29.82S
BEAVER ISLAND  CLEAR     64  53  67 W9        29.82F
BELLAIRE       PTCLDY    62  52  70 CALM      29.85S
CADILLAC       CLEAR     59  51  76 W6        29.88F
CHARLEVOIX     CLEAR     65  52  63 W10G18    29.86F
FRANKFORT      CLEAR     67  53  60 NW14G23   29.87S
GAYLORD        CLEAR     55  50  83 W5        29.85S
GRAYLING       CLEAR     57  49  76 SW3       29.87S
HARBOR SPRINGS CLEAR     60  50  68 W5        29.82F
HOUGHTON LAKE  CLEAR     63  51  65 W10       29.87S
MANISTEE       CLEAR     67  52  58 NW12G18   29.88F
OSCODA         CLEAR     57  51  78 W6        29.83S
PELLSTON       CLEAR     59  51  75 W5        29.82S
ROGERS CITY    CLEAR     57  51  79 W6        29.81F
TRAVERSE CITY  CLEAR     63  53  70 SW6       29.85S
$$
MIZ007>008-015-230400-
EASTERN UPPER MICHIGAN

CITY           SKY/WX    TMP DP  RH WIND       PRES   REMARKS
KINROSS        CLEAR     55  51  86 W7        29.78S
MACKINAC ISLAN PTCLDY    62  52  70 W13G20    29.80S
NEWBERRY       MOCLDY    55  54  97 W6        29.80F
S. S. MARIE    CLEAR     60  51  72 W12G22    29.75S
MUNISING         N/A     62  54  74 VRB3      29.82F
$$
MIZ004>006-011>014-085-230400-
CENTRAL UPPER MICHIGAN

CITY           SKY/WX    TMP DP  RH WIND       PRES   REMARKS
MANISTIQUE     CLEAR     57  50  77 W5        29.82F
ESCANABA       CLEAR     55  52  89 W6        29.86S
MENOMINEE      CLEAR     60  52  74 VRB3      29.90S
SAWYER-GWINN   CLEAR     56  49  79 W6        29.86S
$$
MIZ001>003-009>011-084-230400-
WESTERN UPPER MICHIGAN

CITY           SKY/WX    TMP DP  RH WIND       PRES   REMARKS
IRON MOUNTAIN  CLEAR     58  50  75 W7        29.88S
HOUGHTON       CLOUDY    60  53  77 NW18      29.85R
COPPER HARBOR    N/A     58  52  80 N14       29.82R
IRONWOOD       CLOUDY    57  55  93 W10       29.95R
$$

ABBREVIATIONS USED IN REMARKS
   TC - TEMPERATURE IN CELSIUS
  WCI - WIND CHILL INDEX
   HX - HEAT INDEX
  VSB - VISIBILITY





USA.gov is the U.S. government's official web portal to all federal, state and local government web resources and services.